Location: Unspecified
(0.0000°N, 0.0000°E)
Time: 14:03:18
(UTC+00:00)

Navstar 5 - Visible Passes

Search period start: 24 May 2018 00:00
Search period end: 03 June 2018 00:00
Orbit: 18974 x 21387 km, 63.3° (Epoch: 23 May)

Date Brightness Start Highest point End Pass type
(mag) Time Alt. Az. Time Alt. Az. Time Alt. Az.
24 May ? 12:49:33 10° SSW 16:02:09 66° E 18:39:46 10° NNE visible
25 May ? 12:45:23 10° SSW 15:58:01 66° E 18:35:36 10° NNE visible
26 May ? 12:41:13 10° SSW 15:53:53 66° E 18:31:26 10° NNE visible
27 May ? 12:37:04 10° SSW 15:49:45 66° E 18:27:17 10° NNE visible
28 May ? 12:32:53 10° SSW 15:45:37 66° E 18:23:07 10° NNE visible
29 May ? 12:28:44 10° SSW 15:41:29 66° E 18:18:58 10° NNE visible
30 May ? 12:24:34 10° SSW 15:37:21 66° E 18:14:48 10° NNE visible
31 May ? 12:20:24 10° SSW 15:33:13 66° E 18:10:39 10° NNE visible
01 Jun ? 12:16:15 10° SSW 15:29:05 66° E 18:06:29 10° NNE visible
02 Jun ? 12:12:05 10° SSW 15:24:58 66° E 18:02:20 10° NNE visible
